Flag Weather past 2 weeks in Göttingen, Lower Saxony, Germany

Now
46 °F

Clear.


Feels Like: 40 °F
Forecast: 34 / 48 °F
Wind: 15 mph from Southeast

Location: Kassel / Calden

Current Time: Nov 23, 2014 at 9:11:14 PM

Latest Report: Nov 23, 2014 at 8:20 PM


Visibility: 10 mi

Pressure: 30.04 "Hg

Humidity: 82%

Dew point: 41 °F

Location of GöttingenLocation

Historic Weather in Göttingen — Graph

°F

Göttingen temperature yesterday

Maximum temperature yesterday: 45 °F (at 1:20 PM)
Minimum temperature yesterday: 32 °F (at 6:50 AM)
Average temperature yesterday: 41 °F

Past Weeks' High & Low Weather Summary

 TemperatureHumidityPressure
High54 °F (Nov 11, 12:20 PM)100% (Nov 9, 6:20 AM)30.33 "Hg (Nov 9, 6:20 AM)
Low32 °F (Nov 22, 6:50 AM)58% (Nov 10, 9:50 PM)29.47 "Hg (Nov 16, 12:50 PM)
Average45 °F89%29.89 "Hg
* Reported Nov 8 7:20 PM — Nov 23 7:50 PM, Göttingen, Weather by CustomWeather, © 2014

Note: Actual official high and low records may vary slightly from our data, if they occured in-between our weather recording intervals... More about our weather records

Advertising

Göttingen weather history for previous 24 hours

 ConditionsComfort  
Time TempWeatherWind HumidityBarometerVisibility
7:50 PM
Nov 23
46 °FClear.15 mph82%30.04 "Hg10 mi
7:20 PM48 °FClear.14 mph82%30.04 "Hg10 mi
6:50 PM48 °FClear.15 mph82%30.04 "Hg10 mi
6:20 PM46 °FClear.15 mph82%30.04 "Hg10 mi
5:50 PM46 °FClear.5 mph82%30.07 "Hg10 mi
5:20 PM48 °FClear.13 mph82%30.07 "Hg10 mi
4:50 PM50 °FClear.8 mph76%30.07 "Hg10 mi
4:20 PM50 °FSunny.13 mph76%30.07 "Hg10 mi
3:50 PM50 °FSunny.15 mph76%30.09 "Hg10 mi
3:20 PM50 °FSunny.15 mph76%30.09 "Hg10 mi
2:50 PM52 °FSunny.10 mph72%30.09 "Hg10 mi
2:20 PM52 °FSunny.12 mph72%30.12 "Hg10 mi
1:50 PM50 °FSunny.9 mph76%30.09 "Hg10 mi
1:20 PM50 °FSunny.8 mph71%30.12 "Hg10 mi
12:50 PM48 °FPassing clouds.7 mph76%30.12 "HgN/A
12:20 PM48 °FSunny.8 mph76%30.15 "Hg10 mi
11:50 AM46 °FSunny.10 mph82%30.15 "Hg10 mi
11:20 AM45 °FPassing clouds.9 mph87%30.15 "HgN/A
10:50 AM45 °FScattered clouds.8 mph87%30.18 "Hg4 mi
10:20 AM43 °FFog.8 mph93%30.18 "Hg3 mi
9:50 AM43 °FFog.7 mph93%30.18 "Hg3 mi
9:20 AM39 °FFog.7 mph100%30.18 "Hg3 mi
8:50 AM39 °FFog.12 mph100%30.15 "Hg3 mi
8:20 AM39 °FFog.7 mph93%30.15 "Hg3 mi
7:50 AM37 °FFog.6 mph100%30.15 "Hg3 mi
7:20 AM39 °FFog.5 mph93%30.15 "Hg3 mi
6:50 AM39 °FFog.8 mph93%30.15 "Hg3 mi
6:20 AM39 °FFog.7 mph100%30.15 "Hg3 mi
5:50 AM39 °FFog.8 mph93%30.15 "Hg3 mi
9:50 PM
Nov 22
43 °FFog.7 mph100%30.15 "Hg1 mi
9:20 PM43 °FFog.9 mph100%30.12 "Hg1 mi
Weather by CustomWeather, © 2014

See weather overviewHow to use our weather pages